ARG2202 SAWC-SAWH

Flight info

Callsign ARG2202
Flight time 0h 59m
Altitude 33000
Route DEVIS2D DEVIS UW52 GAL UW42 GRA DCT DABLI DABLI1Q
Aircraft B738/M-SDE2E3FGHIRWXY/LB1

Departure

Time 2026-04-28 22:21
Airport El Calafate - Commander Armando Tola International Airport (SAWC)

Arrival

Time 2026-04-28 23:20
Airport Ushuaia - Malvinas Argentinas International Airport (SAWH)
Time Latitude Longitude Altitude Speed Heading
2026-04-28 21:57 -50.28336 -72.05307 654 ft 0 kts 232°
2026-04-28 21:58 -50.28336 -72.05306 654 ft 0 kts 232°
2026-04-28 22:11 -50.28336 -72.05305 652 ft 0 kts 237°
2026-04-28 22:13 -50.28335 -72.05303 653 ft 1 kts 238°
2026-04-28 22:13 -50.28324 -72.05286 653 ft 2 kts 208°
2026-04-28 22:13 -50.28310 -72.05279 653 ft 2 kts 186°
2026-04-28 22:14 -50.28295 -72.05280 652 ft 2 kts 168°
2026-04-28 22:14 -50.28280 -72.05283 652 ft 2 kts 174°
2026-04-28 22:14 -50.28266 -72.05286 652 ft 1 kts 171°
2026-04-28 22:14 -50.28256 -72.05282 652 ft 1 kts 233°
2026-04-28 22:15 -50.28252 -72.05271 652 ft 0 kts 269°
2026-04-28 22:15 -50.28252 -72.05262 652 ft 0 kts 263°
2026-04-28 22:17 -50.28252 -72.05263 652 ft 0 kts 263°
2026-04-28 22:17 -50.28256 -72.05303 652 ft 7 kts 263°
2026-04-28 22:17 -50.28248 -72.05370 652 ft 5 kts 311°
2026-04-28 22:17 -50.28205 -72.05402 652 ft 13 kts 354°
2026-04-28 22:18 -50.28111 -72.05414 652 ft 13 kts 354°
2026-04-28 22:18 -50.28035 -72.05390 651 ft 11 kts 59°
2026-04-28 22:18 -50.28017 -72.05273 651 ft 11 kts 78°
2026-04-28 22:18 -50.28005 -72.05157 650 ft 10 kts 88°
2026-04-28 22:19 -50.28001 -72.04967 649 ft 21 kts 87°
2026-04-28 22:19 -50.27986 -72.04668 647 ft 34 kts 85°
2026-04-28 22:19 -50.27970 -72.04295 645 ft 33 kts 89°
2026-04-28 22:19 -50.27961 -72.04099 644 ft 1 kts 26°
2026-04-28 22:20 -50.27954 -72.04122 644 ft 1 kts 270°
2026-04-28 22:20 -50.27954 -72.04127 644 ft 0 kts 271°
2026-04-28 22:20 -50.27973 -72.04429 646 ft 69 kts 264°
2026-04-28 22:20 -50.28043 -72.05589 653 ft 142 kts 264°
2026-04-28 22:21 -50.28151 -72.07296 1208 ft 162 kts 263°
2026-04-28 22:21 -50.28259 -72.08976 2004 ft 164 kts 264°
2026-04-28 22:21 -50.28368 -72.10833 2526 ft 180 kts 264°
2026-04-28 22:21 -50.28484 -72.12848 2950 ft 195 kts 264°
2026-04-28 22:22 -50.28607 -72.15036 3336 ft 211 kts 264°
2026-04-28 22:22 -50.28741 -72.17425 3746 ft 228 kts 264°
2026-04-28 22:22 -50.28883 -72.19921 4374 ft 235 kts 263°
2026-04-28 22:22 -50.29022 -72.22426 5105 ft 238 kts 263°
2026-04-28 22:23 -50.29163 -72.24998 5955 ft 237 kts 263°
2026-04-28 22:23 -50.29307 -72.27546 6704 ft 240 kts 262°
2026-04-28 22:23 -50.29462 -72.30187 7281 ft 252 kts 262°
2026-04-28 22:23 -50.29630 -72.32978 7810 ft 265 kts 262°
2026-04-28 22:24 -50.29799 -72.35828 8605 ft 267 kts 261°
2026-04-28 22:24 -50.30125 -72.38644 9373 ft 267 kts 249°
2026-04-28 22:24 -50.31011 -72.41141 10117 ft 267 kts 227°
2026-04-28 22:24 -50.32428 -72.42953 10887 ft 268 kts 213°
2026-04-28 22:25 -50.34072 -72.44332 11640 ft 271 kts 202°
2026-04-28 22:25 -50.35919 -72.44920 12370 ft 277 kts 185°
2026-04-28 22:25 -50.37849 -72.44713 13056 ft 283 kts 174°
2026-04-28 22:25 -50.39764 -72.43920 13690 ft 293 kts 162°
2026-04-28 22:26 -50.41561 -72.42193 14022 ft 317 kts 143°
2026-04-28 22:26 -50.43013 -72.39422 14331 ft 342 kts 126°
2026-04-28 22:26 -50.44034 -72.35975 14661 ft 360 kts 116°
2026-04-28 22:26 -50.44886 -72.32230 14906 ft 376 kts 113°
2026-04-28 22:27 -50.45721 -72.28275 15137 ft 391 kts 112°
2026-04-28 22:27 -50.46582 -72.24149 15459 ft 403 kts 112°
2026-04-28 22:27 -50.47469 -72.19931 16009 ft 408 kts 112°
2026-04-28 22:27 -50.48349 -72.15768 16613 ft 411 kts 113°
2026-04-28 22:28 -50.49256 -72.11507 17229 ft 414 kts 113°
2026-04-28 22:28 -50.50183 -72.07182 17736 ft 419 kts 113°
2026-04-28 22:28 -50.51106 -72.02872 18309 ft 423 kts 113°
2026-04-28 22:28 -50.52047 -71.98479 18845 ft 427 kts 113°
2026-04-28 22:29 -50.52990 -71.94064 19384 ft 431 kts 113°
2026-04-28 22:29 -50.53953 -71.89552 19917 ft 435 kts 113°
2026-04-28 22:29 -50.54916 -71.85078 20468 ft 437 kts 114°
2026-04-28 22:29 -50.55995 -71.80608 20991 ft 439 kts 117°
2026-04-28 22:30 -50.57309 -71.76486 21414 ft 439 kts 126°
2026-04-28 22:30 -50.59022 -71.72568 21919 ft 438 kts 132°
2026-04-28 22:30 -50.60942 -71.68830 22370 ft 440 kts 135°
2026-04-28 22:30 -50.62949 -71.65206 22843 ft 443 kts 136°
2026-04-28 22:31 -50.65012 -71.61597 23329 ft 446 kts 137°
2026-04-28 22:31 -50.67088 -71.57989 23778 ft 449 kts 137°
2026-04-28 22:31 -50.69184 -71.54336 24165 ft 454 kts 137°
2026-04-28 22:31 -50.71300 -71.50621 24640 ft 457 kts 137°
2026-04-28 22:32 -50.73394 -71.46915 25033 ft 461 kts 136°
2026-04-28 22:32 -50.75543 -71.43095 25432 ft 465 kts 136°
2026-04-28 22:32 -50.77659 -71.39311 25857 ft 468 kts 135°
2026-04-28 22:32 -50.79823 -71.35423 26255 ft 472 kts 136°
2026-04-28 22:33 -50.82003 -71.31492 26639 ft 475 kts 134°
2026-04-28 22:33 -50.84185 -71.27546 27142 ft 476 kts 134°
2026-04-28 22:33 -50.86329 -71.23658 27799 ft 472 kts 134°
2026-04-28 22:33 -50.88494 -71.19725 28305 ft 472 kts 134°
2026-04-28 22:34 -50.90644 -71.15818 28781 ft 472 kts 134°
2026-04-28 22:34 -50.92799 -71.11896 29229 ft 472 kts 134°
2026-04-28 22:34 -50.94924 -71.08021 29717 ft 471 kts 133°
2026-04-28 22:34 -50.97031 -71.04083 30142 ft 472 kts 131°
2026-04-28 22:35 -50.98964 -70.99917 30580 ft 473 kts 126°
2026-04-28 22:35 -51.00643 -70.95419 30960 ft 474 kts 119°
2026-04-28 22:35 -51.02014 -70.90669 31292 ft 476 kts 112°
2026-04-28 22:35 -51.03063 -70.85713 31653 ft 477 kts 106°
2026-04-28 22:36 -51.03780 -70.80586 31996 ft 476 kts 100°
2026-04-28 22:36 -51.04228 -70.75349 32231 ft 478 kts 96°
2026-04-28 22:36 -51.04536 -70.70127 32260 ft 480 kts 95°
2026-04-28 22:37 -51.05033 -70.59597 32266 ft 476 kts 94°
2026-04-28 22:37 -51.06085 -70.49326 32267 ft 475 kts 112°
2026-04-28 22:37 -51.07607 -70.44737 32274 ft 474 kts 125°
2026-04-28 22:38 -51.09508 -70.40489 32269 ft 473 kts 129°
2026-04-28 22:38 -51.13585 -70.32313 32265 ft 472 kts 130°
2026-04-28 22:39 -51.17725 -70.24173 32262 ft 472 kts 130°
2026-04-28 22:39 -51.21790 -70.16013 32247 ft 472 kts 129°
2026-04-28 22:40 -51.25814 -70.07770 32244 ft 473 kts 128°
2026-04-28 22:40 -51.29820 -69.99459 32241 ft 474 kts 128°
2026-04-28 22:41 -51.33793 -69.91151 32242 ft 475 kts 128°
2026-04-28 22:41 -51.37787 -69.82761 32239 ft 475 kts 128°
2026-04-28 22:42 -51.41750 -69.74404 32236 ft 474 kts 128°
2026-04-28 22:42 -51.45733 -69.65987 32234 ft 475 kts 128°
2026-04-28 22:43 -51.49725 -69.57523 32224 ft 476 kts 128°
2026-04-28 22:43 -51.53679 -69.49108 32228 ft 476 kts 127°
2026-04-28 22:44 -51.57645 -69.40641 32223 ft 478 kts 128°
2026-04-28 22:44 -51.62181 -69.32892 32221 ft 475 kts 144°
2026-04-28 22:45 -51.67923 -69.27856 32221 ft 474 kts 157°
2026-04-28 22:45 -51.73989 -69.23692 32229 ft 474 kts 159°
2026-04-28 22:46 -51.80030 -69.19672 32228 ft 475 kts 159°
2026-04-28 22:46 -51.86136 -69.15531 32226 ft 475 kts 158°
2026-04-28 22:47 -51.92194 -69.11330 32221 ft 475 kts 158°
2026-04-28 22:47 -51.98249 -69.07084 32212 ft 476 kts 158°
2026-04-28 22:48 -52.04297 -69.02814 32203 ft 477 kts 158°
2026-04-28 22:48 -52.10380 -68.98499 32217 ft 478 kts 158°
2026-04-28 22:49 -52.16441 -68.94180 32230 ft 479 kts 158°
2026-04-28 22:49 -52.22548 -68.89817 32228 ft 478 kts 158°
2026-04-28 22:50 -52.28593 -68.85486 32226 ft 478 kts 158°
2026-04-28 22:50 -52.34665 -68.81123 32225 ft 479 kts 158°
2026-04-28 22:51 -52.40746 -68.76739 32225 ft 480 kts 158°
2026-04-28 22:51 -52.46838 -68.72334 32224 ft 481 kts 158°
2026-04-28 22:52 -52.52968 -68.67891 32220 ft 481 kts 158°
2026-04-28 22:52 -52.59087 -68.63444 32223 ft 481 kts 158°
2026-04-28 22:53 -52.65185 -68.58998 32220 ft 481 kts 157°
2026-04-28 22:53 -52.71279 -68.54536 32230 ft 482 kts 157°
2026-04-28 22:54 -52.77418 -68.50028 32233 ft 482 kts 157°
2026-04-28 22:54 -52.83505 -68.45547 32234 ft 482 kts 157°
2026-04-28 22:55 -52.89641 -68.41020 32231 ft 484 kts 157°
2026-04-28 22:55 -52.95777 -68.36480 32231 ft 484 kts 157°
2026-04-28 22:56 -53.01893 -68.31944 32226 ft 483 kts 156°
2026-04-28 22:56 -53.08012 -68.27382 32237 ft 484 kts 156°
2026-04-28 22:57 -53.14176 -68.22779 32234 ft 483 kts 156°
2026-04-28 22:57 -53.20272 -68.18216 32232 ft 485 kts 156°
2026-04-28 22:58 -53.26435 -68.13580 32238 ft 485 kts 157°
2026-04-28 22:58 -53.32579 -68.08955 32241 ft 485 kts 156°
2026-04-28 22:59 -53.38704 -68.04323 32261 ft 485 kts 156°
2026-04-28 22:59 -53.44828 -67.99673 32248 ft 485 kts 156°
2026-04-28 23:00 -53.50978 -67.94994 32264 ft 486 kts 156°
2026-04-28 23:00 -53.57096 -67.90321 32254 ft 485 kts 156°
2026-04-28 23:01 -53.63227 -67.85622 32246 ft 485 kts 156°
2026-04-28 23:01 -53.69352 -67.80920 32244 ft 487 kts 157°
2026-04-28 23:01 -53.72455 -67.78726 31735 ft 489 kts 159°
2026-04-28 23:02 -53.75598 -67.76604 30899 ft 483 kts 160°
2026-04-28 23:02 -53.78713 -67.74795 30087 ft 475 kts 166°
2026-04-28 23:02 -53.81926 -67.73651 29342 ft 463 kts 174°
2026-04-28 23:02 -53.85056 -67.73061 28464 ft 457 kts 178°
2026-04-28 23:03 -53.88222 -67.72743 27692 ft 447 kts 180°
2026-04-28 23:03 -53.91253 -67.72543 26892 ft 440 kts 180°
2026-04-28 23:03 -53.94289 -67.72358 26124 ft 432 kts 180°
2026-04-28 23:03 -53.97278 -67.72158 25297 ft 426 kts 180°
2026-04-28 23:04 -54.00198 -67.71941 24531 ft 419 kts 180°
2026-04-28 23:04 -54.05932 -67.71456 23095 ft 405 kts 179°
2026-04-28 23:04 -54.08711 -67.71192 22319 ft 402 kts 179°
2026-04-28 23:05 -54.11470 -67.70921 21474 ft 399 kts 179°
2026-04-28 23:05 -54.14210 -67.70642 20920 ft 388 kts 179°
2026-04-28 23:05 -54.16871 -67.70361 20404 ft 388 kts 178°
2026-04-28 23:05 -54.19561 -67.70061 19821 ft 388 kts 177°
2026-04-28 23:06 -54.22268 -67.69757 19242 ft 388 kts 178°
2026-04-28 23:06 -54.24926 -67.69458 18665 ft 387 kts 177°
2026-04-28 23:06 -54.27607 -67.69141 18074 ft 386 kts 176°
2026-04-28 23:06 -54.30280 -67.68873 17497 ft 384 kts 179°
2026-04-28 23:07 -54.32924 -67.68671 16923 ft 381 kts 179°
2026-04-28 23:07 -54.35536 -67.68446 16358 ft 378 kts 178°
2026-04-28 23:07 -54.38163 -67.68169 15789 ft 377 kts 178°
2026-04-28 23:07 -54.40766 -67.67849 15218 ft 374 kts 177°
2026-04-28 23:08 -54.43338 -67.67492 14655 ft 372 kts 177°
2026-04-28 23:08 -54.45911 -67.67178 14089 ft 369 kts 179°
2026-04-28 23:08 -54.48452 -67.66891 13532 ft 365 kts 179°
2026-04-28 23:08 -54.50942 -67.66606 13234 ft 354 kts 179°
2026-04-28 23:09 -54.53367 -67.66349 13000 ft 342 kts 179°
2026-04-28 23:09 -54.55738 -67.66112 12441 ft 342 kts 179°
2026-04-28 23:09 -54.58104 -67.65859 11868 ft 342 kts 180°
2026-04-28 23:09 -54.60475 -67.65645 11390 ft 336 kts 179°
2026-04-28 23:10 -54.62762 -67.65436 11091 ft 326 kts 178°
2026-04-28 23:10 -54.64977 -67.65173 10669 ft 313 kts 179°
2026-04-28 23:10 -54.67111 -67.64920 10173 ft 300 kts 180°
2026-04-28 23:10 -54.69126 -67.64735 9715 ft 287 kts 179°
2026-04-28 23:11 -54.71106 -67.64520 9151 ft 280 kts 180°
2026-04-28 23:11 -54.73044 -67.64330 8378 ft 281 kts 179°
2026-04-28 23:11 -54.74966 -67.64099 7666 ft 279 kts 177°
2026-04-28 23:11 -54.76857 -67.63856 7243 ft 266 kts 178°
2026-04-28 23:12 -54.78670 -67.63831 7094 ft 264 kts 189°
2026-04-28 23:12 -54.80410 -67.64908 6981 ft 261 kts 220°
2026-04-28 23:12 -54.81637 -67.67095 6895 ft 251 kts 238°
2026-04-28 23:12 -54.82233 -67.69838 6721 ft 239 kts 269°
2026-04-28 23:13 -54.82135 -67.72626 6671 ft 230 kts 279°
2026-04-28 23:13 -54.82045 -67.75369 6552 ft 232 kts 270°
2026-04-28 23:13 -54.82145 -67.78168 6328 ft 232 kts 267°
2026-04-28 23:13 -54.82292 -67.80924 6103 ft 225 kts 266°
2026-04-28 23:14 -54.82440 -67.83591 5808 ft 220 kts 267°
2026-04-28 23:14 -54.82563 -67.86195 5462 ft 216 kts 268°
2026-04-28 23:14 -54.82673 -67.88774 5138 ft 211 kts 268°
2026-04-28 23:14 -54.82759 -67.91232 4883 ft 203 kts 268°
2026-04-28 23:15 -54.82837 -67.93681 4494 ft 202 kts 268°
2026-04-28 23:15 -54.82922 -67.96068 4184 ft 198 kts 268°
2026-04-28 23:15 -54.83016 -67.98416 3883 ft 195 kts 268°
2026-04-28 23:15 -54.83108 -68.00748 3599 ft 191 kts 268°
2026-04-28 23:16 -54.83198 -68.03021 3290 ft 186 kts 268°
2026-04-28 23:16 -54.83286 -68.05202 3015 ft 183 kts 267°
2026-04-28 23:16 -54.83374 -68.07400 2735 ft 183 kts 267°
2026-04-28 23:16 -54.83466 -68.09621 2447 ft 182 kts 267°
2026-04-28 23:17 -54.83556 -68.11781 2168 ft 182 kts 267°
2026-04-28 23:17 -54.83652 -68.13974 1941 ft 179 kts 266°
2026-04-28 23:17 -54.83752 -68.16069 1683 ft 168 kts 266°
2026-04-28 23:17 -54.83836 -68.17983 1399 ft 154 kts 266°
2026-04-28 23:18 -54.83872 -68.18810 1289 ft 149 kts 266°
2026-04-28 23:18 -54.83874 -68.18868 1285 ft 148 kts 266°
2026-04-28 23:18 -54.83951 -68.20649 1044 ft 153 kts 265°
2026-04-28 23:18 -54.84027 -68.22440 790 ft 143 kts 265°
2026-04-28 23:19 -54.84101 -68.24167 545 ft 145 kts 265°
2026-04-28 23:19 -54.84182 -68.25894 195 ft 142 kts 263°
2026-04-28 23:19 -54.84250 -68.27613 88 ft 142 kts 262°
2026-04-28 23:19 -54.84313 -68.29289 69 ft 131 kts 265°
2026-04-28 23:20 -54.84378 -68.30607 82 ft 87 kts 265°
2026-04-28 23:20 -54.84401 -68.31366 69 ft 42 kts 267°
2026-04-28 23:20 -54.84416 -68.31702 61 ft 11 kts 265°
2026-04-28 23:20 -54.84407 -68.31724 61 ft 3 kts 50°
2026-04-28 23:21 -54.84404 -68.31699 61 ft 3 kts 92°
2026-04-28 23:21 -54.84406 -68.31584 64 ft 16 kts 91°
2026-04-28 23:21 -54.84403 -68.31358 69 ft 13 kts 79°
2026-04-28 23:21 -54.84338 -68.31309 71 ft 10 kts 349°
2026-04-28 23:22 -54.84276 -68.31318 71 ft 6 kts 356°
2026-04-28 23:22 -54.84238 -68.31324 71 ft 4 kts 355°
2026-04-28 23:22 -54.84208 -68.31326 72 ft 5 kts 357°
2026-04-28 23:22 -54.84170 -68.31330 72 ft 6 kts 356°
2026-04-28 23:23 -54.84131 -68.31330 73 ft 3 kts 27°
2026-04-28 23:23 -54.84105 -68.31297 74 ft 4 kts 30°
2026-04-28 23:23 -54.84071 -68.31280 75 ft 5 kts 13°
2026-04-28 23:23 -54.84036 -68.31261 75 ft 0 kts 18°
2026-04-28 23:24 -54.84027 -68.31258 75 ft 2 kts 16°
2026-04-28 23:24 -54.84022 -68.31255 75 ft 0 kts 17°